Regional Weather Roundup
Issued by NWS

Home | Current Version | Previous Version | Text Only | Print | Product List | Glossary Off
Versions: 1 2 3 4 5 6 7 8 9 10 11 12 13 14 15 16 17 18 19 20 21 22 23 24 25 26 27 28 29 30 31 32 33 34 35 36 37 38 39 40 41 42 43 44 45 46 47 48 49 50

215
ASUS43 KMKX 221800
RWRWI

WISCONSIN REGIONAL WEATHER ROUNDUP
NATIONAL WEATHER SERVICE MILWAUKEE/SULLIVAN WI
1200 PM CST MON JAN 22 2018

NOTE: "FAIR" INDICATES FEW OR NO CLOUDS BELOW 12,000 FEET WITH NO
SIGNIFICANT WEATHER AND/OR OBSTRUCTIONS TO VISIBILITY.

WIZ001-002-006>008-014>016-023>028-221900-
NORTHWEST WISCONSIN

CITY           SKY/WX    TMP DP  RH WIND       PRES   REMARKS
SUPERIOR ARPT  CLOUDY    26  25  96 NE18G26   29.95F WCI  12
ASHLAND        SNOW      28  26  92 NE22G36   29.90F VSB 1/2 WCI  14
6HR MIN TEMP:  28; 6HR MAX TEMP:  29; 6HR PCP: TRACE;

HAYWARD        LGT SNOW  29  25  85 NE17G25   29.82F FOG     WCI  17
6HR MIN TEMP:  28; 6HR MAX TEMP:  30; 6HR PCP: TRACE;

SIREN          CLOUDY    30  25  80 NE15G23   29.82F WCI  19
CUMBERLAND     LGT SNOW  30  27  86 NE18      29.76F VSB 3/4 WCI  18
RICE LAKE      SNOW      30  28  91 N20G26    29.76F VSB 1/2 WCI  18
CHETEK         SNOW      30  28  93 N13G20    29.73F VSB 1/4 WCI  20
LADYSMITH      SNOW      31  28  90 N14       29.76F VSB 1/2 WCI  21
EAU CLAIRE     NOT AVBL
MENOMONIE      SNOW      32  31  96 N17G28    29.67F VSB 1/2 WCI  21
NEW RICHMOND   SNOW      30  27  86 NE17G24   29.72F VSB 1/2 WCI  18
OSCEOLA        LGT SNOW  31  31 100 N13       29.79F VSB 3/4 WCI  21
$$

WIZ003>005-009-010-017-018-221900-
NORTH CENTRAL WISCONSIN

CITY           SKY/WX    TMP DP  RH WIND       PRES   REMARKS
MANITOWISH WTR CLOUDY    28  28 100 NE10G21   29.78F WCI  18
ARBOR VITAE    LGT SNOW  32  30  92 NE8       29.75F WCI  25
WOODRUFF       LGT SNOW  32  30  92 NE8       29.75F WCI  25
RHINELANDER    LGT SNOW  31  30  96 NE9       29.71F VSB 3/4 WCI  23
6HR MIN TEMP:  31; 6HR MAX TEMP:  31; 6HR PCP:  0.02;

EAGLE RIVER    LGT SNOW  30  29  97 NE14      29.74F WCI  19
6HR MIN TEMP:  29; 6HR MAX TEMP:  30;

LAND O LAKES   LGT SNOW  29  29  98 NE10G17   29.80F WCI  20
PHILLIPS       LGT SNOW  29  28  97 NE14G21   29.74F WCI  18
6HR MIN TEMP:  29; 6HR MAX TEMP:  30;

TOMAHAWK       LGT SNOW  31  29  92 NE8       29.72F VSB 3/4 WCI  23
MEDFORD        LGT SNOW  31  30  94 NE20G25   29.64F VSB 1   WCI  19
MERRILL        LGT SNOW  32  31  96 NE13G23   29.67F WCI  23
6HR MIN TEMP:  32; 6HR MAX TEMP:  33; 6HR PCP:  0.03;

$$

WIZ029-030-035-036-043>047-221900-
CENTRAL WISCONSIN

CITY           SKY/WX    TMP DP  RH WIND       PRES   REMARKS
WAUSAU         LGT SNOW  33  31  92 NE13G21   29.63F VSB 1   WCI  24
6HR MIN TEMP:  33; 6HR MAX TEMP:  34; 6HR PCP:  0.19;

MOSINEE        LGT SNOW  34  32  93 NE21G28   29.65F VSB 3/4 WCI  22
MARSHFIELD     LGT SNOW  33  32  96 NE20G28   29.58F FOG     WCI  21
6HR MIN TEMP:  33; 6HR MAX TEMP:  34; 6HR PCP:  0.23;

STEVENS POINT  MIX PCPN  32  32 100 E20G25    29.65F WCI  20
WAUPACA        CLOUDY    37  34  90 NE9       29.66S WCI  30
WAUTOMA        CLOUDY    35  33  92 NE17G24   29.58F WCI  25
6HR MIN TEMP:  34; 6HR MAX TEMP:  35;

WISC RAPIDS    NOT AVBL
CAMP DOUGLAS   LGT RAIN  35  35  99 E14G22    29.54F WCI  26
6HR MIN TEMP:  35; 6HR MAX TEMP:  35; 6HR PCP:  0.49;

$$

WIZ011>013-019>022-031-037>040-048>050-221900-
NORTHEAST WISCONSIN

CITY           SKY/WX    TMP DP  RH WIND       PRES   REMARKS
ANTIGO         LGT SNOW  32  30  93 NE21G30   29.67F WCI  20
SHAWANO        LGT SNOW  35  32  90 NE21G26   29.67F WCI  23
6HR MIN TEMP:  35; 6HR MAX TEMP:  35; 6HR PCP:  0.06;

OCONTO         CLOUDY    32  31  96 NE18G29   29.69F WCI  20
STURGEON BAY   LGT SNOW  34  32  92 NE15G28   29.68F FOG     WCI  24
6HR MIN TEMP:  34; 6HR MAX TEMP:  35; 6HR PCP:  0.36;

GREEN BAY      LGT RAIN  34  32  92 NE23G30   29.65S FOG     WCI  22
6HR MIN TEMP:  33; 6HR MAX TEMP:  35; 6HR PCP:  0.26;

MANITOWOC      LGT RAIN  36  35  96 NE12G22   29.60F FOG     WCI  28
6HR MIN TEMP:  36; 6HR MAX TEMP:  37; 6HR PCP:  0.53;

APPLETON       LGT RAIN  36  36 100 NE18G25   29.61R FOG     WCI  25
CLINTONVILLE   CLOUDY    34  32  93 E18G33    29.65S WCI  23
OSHKOSH        RAIN      35  34  96 NE15      29.59F FOG     WCI  25
6HR MIN TEMP:  33; 6HR MAX TEMP:  36; 6HR PCP:  0.27;

$$

WIZ032>034-041-042-053>061-221900-
SOUTHWEST WISCONSIN

CITY           SKY/WX    TMP DP  RH WIND       PRES   REMARKS
LA CROSSE      LGT RAIN  37  34  89 NE15G22   29.52F FOG     WCI  28
6HR MIN TEMP:  37; 6HR MAX TEMP:  38; 6HR PCP:  0.38;

SPARTA         DRIZZLE   34  33  95 E16G29    29.55F WCI  23
VIROQUA        CLOUDY    34  34 100 E25G32    29.46F WCI  22
6HR MIN TEMP:  34; 6HR MAX TEMP:  35; 6HR PCP:  0.14;

BOSCOBEL       LGT RAIN  37  50 100 NE9G21    29.46F WCI  30
6HR MIN TEMP:  37; 6HR MAX TEMP:  37; 6HR PCP:  0.30;

PRAIRIE DU CHI HVY RAIN  37  34  90 SE6       29.50R WCI  32
PLATTEVILLE    CLOUDY    38  38 100 E13       29.45F WCI  30
$$

WIZ056-057-062-063-064-067-068-221900-
SOUTH CENTRAL WISCONSIN

CITY           SKY/WX    TMP DP  RH WIND       PRES   REMARKS
REEDSBURG      CLOUDY    34  34 100 E15G25    29.53F FOG     WCI  24
BARABOO/DELLS  LGT SNOW  34  33  97 NE17G24   29.53F WCI  23
LONE ROCK      CLOUDY    37  36  96 E16G23    29.47F FOG     WCI  28
6HR MIN TEMP:  36; 6HR MAX TEMP:  38; 6HR PCP:  0.08;

MINERAL POINT  RAIN      37  37 100 NE18      29.43F WCI  27
MADISON        LGT RAIN  38  37  97 NE12      29.51F FOG     WCI  30
6HR MIN TEMP:  36; 6HR MAX TEMP:  38; 6HR PCP:  0.20;

MIDDLETON      CLOUDY    38  38 100 NE14      29.51F WCI  30
WATERTOWN      CLOUDY    38  38 100 NE5       29.51F FOG     WCI  34
MONROE         LGT RAIN  37  37 100 NE10G17   29.47F VSB 3/4 WCI  30
JANESVILLE     CLOUDY    41  41 100 NE6       29.48F FOG
$$

WIZ051-052-058>065-066-070>072-221900-
SOUTHEAST WISCONSIN

CITY           SKY/WX    TMP DP  RH WIND       PRES   REMARKS
MILWAUKEE      LGT RAIN  41  40  96 N5        29.51F VSB 3/4
6HR MIN TEMP:  37; 6HR MAX TEMP:  41; 6HR PCP:  0.74;

WAUKESHA       FOG       36  36 100 NE7       29.53F VSB 1   WCI  30
MILWAUKEE/TIMM DRIZZLE   37  36  93 NE9       29.53F FOG     WCI  31
RACINE         FOG       42  42 100 S3        29.52F VSB 3/4
6HR MIN TEMP:  38; 6HR MAX TEMP:  42; 6HR PCP:  0.76;

BURLINGTON     MIX PCPN  40  39  97 CALM      29.51F
KENOSHA        LGT RAIN  49  47  93 S13       29.49F FOG
6HR MIN TEMP:  40; 6HR MAX TEMP:  49; 6HR PCP:  0.66;

FOND DU LAC    CLOUDY    38  34  85 NE13      29.57F WCI  30
6HR MIN TEMP:  37; 6HR MAX TEMP:  39; 6HR PCP:  0.29;

SHEBOYGAN      MIX PCPN  36  36 100 NE17      29.57F FOG     WCI  26
6HR MIN TEMP:  36; 6HR MAX TEMP:  37; 6HR PCP:  0.34;

WEST BEND      CLOUDY    36  36 100 NE13G22   29.55F WCI  27
JUNEAU         DRIZZLE   37  36  97 N7        29.55F WCI  31
$$

LSZ147-162-221900-
LAKE SUPERIOR

STATION/POSITION TIME  TEMP    WIND        PRES    WAVE
                       AIR SEA DIR/SP/G            HT/PER
                 (UTC) (F)     (DEG/KT/KT) (MB)    (FT/S)
DEVILS ISLAND    1700   24      50/ 24/ 27 1016.2F
SAXON HARBOR     1730   29      50/ 24/ 31 1011.9F
$$

LMZ867-665-643>646-221900-
LAKE MICHIGAN

STATION/POSITION TIME  TEMP    WIND        PRES    WAVE
                       AIR SEA DIR/SP/G            HT/PER
                 (UTC) (F)     (DEG/KT/KT) (MB)    (FT/S)
NORTHPORT PIER   1740   31      50/  4/ 16 1008.1F
KEWAUNEE LAKESHO 1730   36      40/ 15/ 21 1004.1F
SHEBOYGAN LAKESH 1700   36      20/ 19/ 22 1003.3F
PORT WASHINGTON  1730   37      40/ 16/ 19 1002.4F
MILWAUKEE LAKESH 1730   38     360/  6/  6   N/A
KENOSHA   LAKESH 1700   37     170/  7/ 11 1000.7
$$

TC  - TEMPERATURE IN CELSIUS
VSB - VISIBILITY IN STATUTE MILES
WCI - WIND CHILL INDEX
HX  - HEAT INDEX





USA.gov is the U.S. government's official web portal to all federal, state and local government web resources and services.